Вернуться в каталог

DELTA 1 DEB

АктивенPO
NORAD 21341·DEBRIS·🇺🇸 United States

Запущен Jun 12, 1975 с Vandenberg Space Force Base

Loading…

Ближайшие Пролёты (ближайшие 24 часа)

TLE

СвежийSource: Space-Track

Эпоха: Sep 13, 2026, 15:50 UTC

1 21341U 75052BK  26256.66017120  .00000086  00000-0  44868-3 0  9991
2 21341  99.7260 288.2231 0498430 220.3194 268.3495 12.58293484620956

Отслеживайте DELTA 1 DEB в реальном времени с AllMySat

Download on the App Store